VR2R-13 Weather Reports


Display with metric or nautical units.
time (UTC)temp
F
wind
direction
speed
MPH
gust
MPH
rain 1hr
in
rain 24hr
in
rain mn
in
humidity
%
barometer
mb
20260507235310 72 22 1.0 2.0 0.00 0.00 0.00 87 915.4
20260507234811 72 67 3.0 5.0 0.00 0.00 0.00 89 915.3
20260507234311 72 183 0.0 0.0 0.00 0.00 0.00 89 915.3
20260507233810 71 33 2.0 5.0 0.00 0.00 0.00 88 915.2
20260507233611 71 66 2.0 5.0 0.00 0.00 0.00 88 915.1
20260507233310 71 324 2.0 4.0 0.00 0.00 0.00 89 915.1
20260507233011 71 18 1.0 4.0 0.00 0.00 0.00 89 915.1
20260507232810 71 232 1.0 4.0 0.00 0.00 0.00 89 915.1
20260507232411 71 276 0.0 3.0 0.00 0.00 0.00 88 915.1
20260507232310 71 256 1.0 3.0 0.00 0.00 0.00 89 915.0
20260507231812 70 42 1.0 3.0 0.00 0.00 0.00 89 915.0
20260507231810 70 43 1.0 3.0 0.00 0.00 0.00 89 915.0
20260507231310 70 119 1.0 2.0 0.00 0.00 0.00 88 914.9
20260507231211 70 117 1.0 2.0 0.00 0.00 0.00 88 915.0
20260507230810 70 70 0.0 2.0 0.00 0.00 0.00 88 914.9
20260507230611 70 204 0.0 2.0 0.00 0.00 0.00 88 914.9
20260507230309 70 158 0.0 2.0 0.00 0.00 0.00 88 914.9
20260507230011 70 103 0.0 2.0 0.00 0.00 0.00 88 914.8
20260507225809 70 95 0.0 3.0 0.00 0.00 0.00 87 914.8
20260507225411 70 120 1.0 2.0 0.00 0.00 0.00 88 914.8
20260507225309 70 148 1.0 2.0 0.00 0.00 0.00 88 914.8
20260507224809 69 83 1.0 2.0 0.00 0.00 0.00 88 914.7
20260507224309 69 81 1.0 2.0 0.00 0.00 0.00 88 914.7
20260507224211 69 80 1.0 2.0 0.00 0.00 0.00 88 914.7
20260507223611 69 98 1.0 3.0 0.00 0.00 0.00 89 914.6
20260507223309 68 220 1.0 4.0 0.00 0.00 0.00 89 914.5
20260507223011 68 284 2.0 4.0 0.00 0.00 0.00 89 914.5
20260507222809 68 323 2.0 4.0 0.00 0.00 0.00 89 914.4
20260507222309 68 303 3.0 5.0 0.00 0.00 0.00 89 914.4
20260507221809 67 303 3.0 5.0 0.00 0.00 0.00 90 914.4
20260507221309 67 293 4.0 5.0 0.00 0.00 0.00 90 914.4
20260507220809 67 297 3.0 5.0 0.00 0.00 0.00 90 914.3
20260507220309 67 289 4.0 5.0 0.00 0.00 0.00 90 914.3
20260507215809 67 278 4.0 5.0 0.00 0.00 0.00 90 914.2
20260507215309 67 307 4.0 5.0 0.00 0.00 0.00 90 914.2
20260507214809 67 275 4.0 5.0 0.00 0.00 0.00 90 914.1
20260507214309 67 276 4.0 5.0 0.00 0.00 0.00 90 914.1
20260507213809 67 283 4.0 4.0 0.00 0.00 0.00 90 914.1
20260507213309 67 280 2.0 4.0 0.00 0.00 0.00 90 914.1
20260507212809 67 307 3.0 4.0 0.00 0.00 0.00 90 914.0
20260507212309 68 300 3.0 4.0 0.00 0.00 0.00 89 914.0
20260507211809 68 295 3.0 4.0 0.00 0.00 0.00 89 913.9
20260507211309 68 284 2.0 4.0 0.00 0.00 0.00 89 913.8
20260507210809 68 305 3.0 4.0 0.00 0.00 0.00 89 913.9
20260507210308 68 303 3.0 4.0 0.00 0.00 0.00 89 913.8
20260507205808 68 285 3.0 5.0 0.00 0.00 0.00 89 913.8
20260507205309 68 283 3.0 5.0 0.00 0.00 0.00 88 913.7
20260507204808 68 296 3.0 4.0 0.00 0.00 0.00 88 913.7
20260507204308 68 273 3.0 4.0 0.00 0.00 0.00 88 913.5
20260507203809 68 285 3.0 4.0 0.00 0.00 0.00 88 913.5
20260507203308 69 296 3.0 4.0 0.00 0.00 0.00 87 913.5
20260507202808 69 288 2.0 2.0 0.00 0.00 0.00 85 913.4
20260507202308 69 302 1.0 2.0 0.00 0.00 0.00 85 913.5
20260507201808 69 299 2.0 3.0 0.00 0.00 0.00 85 913.4
20260507201308 69 295 2.0 3.0 0.00 0.00 0.00 85 913.4
20260507200808 69 294 2.0 3.0 0.00 0.00 0.00 86 913.3
20260507200309 69 297 3.0 3.0 0.00 0.00 0.00 86 913.3
20260507195808 69 294 2.0 3.0 0.00 0.00 0.00 86 913.3
20260507195308 69 305 3.0 3.0 0.00 0.00 0.00 86 913.3
20260507194808 69 287 1.0 3.0 0.00 0.00 0.00 86 913.2
20260507194308 69 286 2.0 3.0 0.00 0.00 0.00 86 913.2
20260507193808 69 287 2.0 3.0 0.00 0.00 0.00 87 913.2
20260507193308 68 299 3.0 3.0 0.00 0.00 0.00 88 913.2
20260507192808 68 300 3.0 4.0 0.00 0.00 0.00 88 913.3
20260507192308 68 312 3.0 4.0 0.00 0.00 0.00 88 913.3
20260507191808 68 311 3.0 3.0 0.00 0.00 0.00 88 913.3
20260507191308 68 311 3.0 3.0 0.00 0.00 0.00 88 913.3
20260507190308 68 300 2.0 4.0 0.00 0.00 0.00 88 913.5
20260507185808 68 331 2.0 5.0 0.00 0.00 0.00 89 913.6
20260507185307 68 313 3.0 5.0 0.00 0.00 0.00 89 913.6
20260507184808 68 314 3.0 5.0 0.00 0.00 0.00 89 913.6
20260507184307 68 335 3.0 5.0 0.00 0.00 0.00 88 913.6
20260507183807 68 320 3.0 4.0 0.00 0.00 0.00 89 913.6
20260507183307 68 317 3.0 4.0 0.00 0.00 0.00 88 913.7
20260507182807 68 343 3.0 4.0 0.00 0.00 0.00 89 913.7
20260507182307 68 304 3.0 5.0 0.00 0.00 0.00 89 913.8
20260507181807 68 298 3.0 5.0 0.00 0.00 0.00 89 913.9
20260507181307 67 300 4.0 6.0 0.00 0.00 0.00 88 913.9
20260507180807 67 287 5.0 6.0 0.00 0.00 0.00 88 914.0
20260507180307 68 289 4.0 5.0 0.00 0.00 0.00 88 914.1
20260507175807 68 284 2.0 5.0 0.00 0.00 0.00 88 914.0
20260507175307 68 293 4.0 5.0 0.00 0.00 0.00 88 914.0
20260507174807 68 296 4.0 4.0 0.00 0.00 0.00 88 914.0
20260507174309 68 283 4.0 4.0 0.00 0.00 0.00 88 914.1
20260507173807 67 266 3.0 4.0 0.00 0.00 0.00 87 914.1
20260507173307 67 268 2.0 4.0 0.00 0.00 0.00 87 914.2
20260507172807 67 262 2.0 4.0 0.00 0.00 0.00 87 914.2
20260507172408 67 243 1.0 3.0 0.00 0.00 0.00 87 914.2
20260507172308 67 267 1.0 3.0 0.00 0.00 0.00 87 914.2
20260507171808 67 248 2.0 3.0 0.00 0.00 0.00 87 914.2
20260507171308 67 219 1.0 3.0 0.00 0.00 0.00 87 914.2
20260507170807 67 195 2.0 3.0 0.00 0.00 0.00 87 914.2
20260507170608 67 200 2.0 3.0 0.00 0.00 0.00 86 914.2
20260507170307 67 212 1.0 3.0 0.00 0.00 0.00 86 914.3
20260507170008 67 182 2.0 3.0 0.00 0.00 0.00 87 914.3
20260507165807 67 202 2.0 3.0 0.00 0.00 0.00 87 914.3
20260507165408 67 191 1.0 2.0 0.00 0.00 0.00 87 914.3
20260507165307 67 202 1.0 2.0 0.00 0.00 0.00 87 914.3
20260507164808 67 167 0.0 3.0 0.00 0.00 0.00 87 914.3
20260507164308 67 180 1.0 3.0 0.00 0.00 0.00 87 914.3
20260507164208 67 143 2.0 3.0 0.00 0.00 0.00 87 914.3
20260507163807 67 166 1.0 2.0 0.00 0.00 0.00 86 914.4
20260507163608 67 212 1.0 2.0 0.00 0.00 0.00 86 914.4
20260507163306 67 212 1.0 2.0 0.00 0.00 0.00 86 914.4
20260507163008 67 193 1.0 2.0 0.00 0.00 0.00 86 914.4
20260507162408 67 250 0.0 2.0 0.00 0.00 0.00 87 914.5
20260507162307 67 228 0.0 2.0 0.00 0.00 0.00 87 914.4
20260507161808 67 136 1.0 2.0 0.00 0.00 0.00 87 914.4
20260507161806 67 141 1.0 2.0 0.00 0.00 0.00 87 914.4
20260507161308 67 108 1.0 2.0 0.00 0.00 0.00 87 914.5
20260507161208 67 116 1.0 2.0 0.00 0.00 0.00 87 914.5
20260507160806 67 168 0.0 1.0 0.00 0.00 0.00 87 914.6
20260507160608 66 188 0.0 0.0 0.00 0.00 0.00 88 914.6
20260507160306 66 165 0.0 0.0 0.00 0.00 0.00 88 914.6
20260507160008 66 141 1.0 2.0 0.00 0.00 0.00 88 914.6
20260507155806 66 167 1.0 2.0 0.00 0.00 0.00 88 914.6
20260507155407 66 174 2.0 2.0 0.00 0.00 0.00 88 914.6
20260507155307 67 177 1.0 2.0 0.00 0.00 0.00 88 914.6
20260507154808 67 175 1.0 2.0 0.00 0.00 0.00 88 914.5
20260507154806 67 173 1.0 2.0 0.00 0.00 0.00 88 914.5
20260507154308 67 198 1.0 2.0 0.00 0.00 0.00 88 914.6
20260507154208 66 199 1.0 2.0 0.00 0.00 0.00 88 914.6
20260507153807 66 207 1.0 2.0 0.00 0.00 0.00 88 914.5
20260507153607 66 202 2.0 2.0 0.00 0.00 0.00 88 914.5
20260507153306 66 205 1.0 2.0 0.00 0.00 0.00 89 914.6
20260507153007 66 204 0.0 1.0 0.00 0.00 0.00 89 914.7
20260507152806 66 236 1.0 2.0 0.00 0.00 0.00 89 914.7
20260507152407 66 215 0.0 2.0 0.00 0.00 0.00 89 914.7
20260507152307 66 189 2.0 3.0 0.00 0.00 0.00 89 914.7
20260507151808 66 219 2.0 3.0 0.00 0.00 0.00 89 914.7
20260507151806 66 219 2.0 3.0 0.00 0.00 0.00 89 914.8
20260507151306 67 229 1.0 3.0 0.00 0.00 0.00 88 914.7
20260507151207 67 246 2.0 3.0 0.00 0.00 0.00 88 914.7
20260507150806 67 226 2.0 2.0 0.00 0.00 0.00 87 914.7
20260507150607 67 215 1.0 2.0 0.00 0.00 0.00 87 914.8
20260507150306 67 266 1.0 2.0 0.00 0.00 0.00 88 914.8
20260507150007 67 257 1.0 2.0 0.00 0.00 0.00 88 914.8
20260507145806 67 272 1.0 2.0 0.00 0.00 0.00 88 914.8
20260507145407 66 264 1.0 3.0 0.00 0.00 0.00 88 914.9
20260507145307 66 266 1.0 3.0 0.00 0.00 0.00 88 914.9
20260507144807 66 197 2.0 3.0 0.00 0.00 0.00 88 914.9
20260507144306 66 228 2.0 4.0 0.00 0.00 0.00 88 914.9
20260507144207 66 193 2.0 4.0 0.00 0.00 0.00 88 914.9
20260507143806 67 187 2.0 4.0 0.00 0.00 0.00 88 914.8
20260507143607 67 207 3.0 4.0 0.00 0.00 0.00 88 914.9
20260507143306 67 219 2.0 3.0 0.00 0.00 0.00 88 914.9
20260507143007 67 207 3.0 3.0 0.00 0.00 0.00 88 914.9
20260507142805 67 187 2.0 3.0 0.00 0.00 0.00 88 914.9
20260507142407 67 194 2.0 3.0 0.00 0.00 0.00 88 914.8
20260507142307 67 249 2.0 3.0 0.00 0.00 0.00 88 914.8
20260507141807 67 187 1.0 3.0 0.00 0.00 0.00 88 914.8
20260507141805 67 184 1.0 3.0 0.00 0.00 0.00 88 914.7
20260507141306 66 187 2.0 4.0 0.00 0.00 0.00 88 914.7
20260507141207 66 115 2.0 5.0 0.00 0.00 0.00 88 914.7
20260507140805 66 151 2.0 5.0 0.00 0.00 0.00 88 914.6
20260507140607 66 158 3.0 5.0 0.00 0.00 0.00 88 914.5
20260507140305 66 172 1.0 5.0 0.00 0.00 0.00 88 914.6
20260507140007 66 168 2.0 4.0 0.00 0.00 0.00 88 914.6
20260507135805 66 145 1.0 2.0 0.00 0.00 0.00 88 914.6
20260507135407 67 124 1.0 2.0 0.00 0.00 0.00 88 914.5
20260507135306 67 115 1.0 2.0 0.00 0.00 0.00 89 914.5
20260507134807 67 158 2.0 5.0 0.00 0.00 0.00 89 914.5
20260507134805 67 164 2.0 5.0 0.00 0.00 0.00 89 914.5
20260507134305 66 124 0.0 3.0 0.00 0.00 0.00 88 914.4
20260507134207 67 111 2.0 3.0 0.00 0.00 0.00 88 914.3
20260507133805 67 88 1.0 3.0 0.00 0.00 0.00 88 914.3
20260507133305 66 79 2.0 4.0 0.00 0.00 0.00 88 914.2
20260507133007 66 112 2.0 6.0 0.00 0.00 0.00 88 914.2
20260507132805 66 114 3.0 6.0 0.00 0.00 0.00 89 914.2
20260507132406 66 103 4.0 5.0 0.00 0.00 0.00 89 914.1
20260507132307 66 122 4.0 5.0 0.00 0.00 0.00 89 914.1
20260507131808 66 91 3.0 4.0 0.00 0.00 0.00 89 914.1
20260507131806 66 97 3.0 4.0 0.00 0.00 0.00 89 914.2
20260507131305 67 133 1.0 3.0 0.00 0.00 0.00 90 914.1
20260507131206 67 87 0.0 2.0 0.00 0.00 0.00 90 914.1
20260507130805 67 360 1.0 3.0 0.00 0.00 0.00 90 914.1
20260507130606 67 359 1.0 3.0 0.00 0.00 0.00 90 914.1
20260507130305 67 104 1.0 3.0 0.00 0.00 0.00 90 914.0
20260507130006 68 119 2.0 4.0 0.00 0.00 0.00 89 914.0
20260507125805 68 138 2.0 3.0 0.00 0.00 0.00 89 914.0
20260507125406 68 140 0.0 1.0 0.00 0.00 0.00 89 913.9
20260507125307 68 124 0.0 1.0 0.00 0.00 0.00 89 914.0
20260507124807 68 27 0.0 0.0 0.00 0.00 0.00 88 913.9
20260507124805 68 28 0.0 0.0 0.00 0.00 0.00 88 913.9
20260507124305 69 79 0.0 1.0 0.00 0.00 0.00 88 913.9
20260507124206 69 43 0.0 1.0 0.00 0.00 0.00 88 913.8
20260507123805 68 14 1.0 2.0 0.00 0.00 0.00 88 913.7
20260507123606 68 49 2.0 3.0 0.00 0.00 0.00 89 913.7
20260507123305 68 79 1.0 2.0 0.00 0.00 0.00 89 913.6
20260507123006 68 64 0.0 1.0 0.00 0.00 0.00 90 913.6
20260507122804 68 119 1.0 3.0 0.00 0.00 0.00 90 913.6
20260507122406 68 104 1.0 3.0 0.00 0.00 0.00 90 913.6
20260507121806 67 137 0.0 3.0 0.00 0.00 0.00 91 913.6
20260507121804 67 138 0.0 3.0 0.00 0.00 0.00 91 913.5
20260507121304 68 150 2.0 3.0 0.00 0.00 0.00 91 913.5
20260507121206 68 135 2.0 3.0 0.00 0.00 0.00 91 913.5
20260507120804 68 128 1.0 2.0 0.00 0.00 0.00 91 913.5
20260507120606 68 128 1.0 2.0 0.00 0.00 0.00 90 913.5
20260507120305 68 118 1.0 2.0 0.00 0.00 0.00 90 913.5
20260507120006 68 132 0.0 1.0 0.00 0.00 0.00 90 913.4
20260507115804 68 174 1.0 2.0 0.00 0.00 0.00 90 913.4
20260507115406 68 50 0.0 0.0 0.00 0.00 0.00 90 913.4
20260507115307 68 347 0.0 0.0 0.00 0.00 0.00 90 913.4
20260507114806 67 39 0.0 1.0 0.00 0.00 0.00 91 913.3
20260507114804 67 41 0.0 1.0 0.00 0.00 0.00 91 913.3
20260507114304 67 129 1.0 2.0 0.00 0.00 0.00 92 913.2
20260507114205 67 134 1.0 2.0 0.00 0.00 0.00 92 913.2
20260507112405 68 141 0.0 3.0 0.00 0.00 0.00 91 912.9
20260507112307 68 193 2.0 3.0 0.00 0.00 0.00 91 912.9
20260507111806 68 166 0.0 0.0 0.00 0.00 0.00 91 913.0
20260507111804 68 173 0.0 0.0 0.00 0.00 0.00 91 912.9
20260507110605 68 134 1.0 2.0 0.00 0.00 0.00 91 913.0
20260507110304 68 150 1.0 2.0 0.00 0.00 0.00 91 912.9
20260507110005 68 176 1.0 2.0 0.00 0.00 0.00 91 912.9
20260507105804 68 187 2.0 4.0 0.00 0.00 0.00 91 912.9
20260507105405 68 189 1.0 3.0 0.00 0.00 0.00 92 912.9
20260507104804 68 202 2.0 4.0 0.00 0.00 0.00 92 912.9
20260507104304 68 197 2.0 2.0 0.00 0.00 0.00 92 912.9
20260507104205 68 213 1.0 2.0 0.00 0.00 0.00 92 912.9
20260507103804 68 321 0.0 0.0 0.00 0.00 0.00 93 912.9
20260507103605 67 197 0.0 0.0 0.00 0.00 0.00 93 912.9
20260507103304 67 199 2.0 4.0 0.00 0.00 0.00 94 912.8
20260507103005 67 205 0.0 3.0 0.00 0.00 0.00 94 912.8
20260507102804 67 267 0.0 1.0 0.00 0.00 0.00 95 912.7
20260507102405 68 136 0.0 2.0 0.00 0.00 0.00 95 912.7
20260507102306 68 135 0.0 2.0 0.00 0.00 0.00 95 912.7
20260507101806 68 134 0.0 1.0 0.00 0.00 0.00 95 912.7
20260507101804 68 135 0.0 1.0 0.00 0.00 0.00 95 912.7
20260507095405 68 174 0.0 3.0 0.00 0.00 0.00 96 912.6
20260507093803 69 181 3.0 4.0 0.00 0.00 0.00 95 912.5
20260507093606 68 214 0.0 0.0 0.00 0.00 0.00 95 912.6
20260507093303 69 210 2.0 4.0 0.00 0.00 0.00 95 912.6
20260507093004 69 201 3.0 5.0 0.00 0.00 0.00 95 912.5
20260507092803 69 210 0.0 4.0 0.00 0.00 0.00 95 912.5
20260507092404 69 212 3.0 5.0 0.00 0.00 0.00 95 912.5
20260507092306 69 184 3.0 5.0 0.00 0.00 0.00 95 912.5
20260507091805 69 265 3.0 6.0 0.00 0.00 0.00 94 912.5
20260507091803 69 264 3.0 6.0 0.00 0.00 0.00 94 912.5
20260507091303 69 214 4.0 6.0 0.00 0.00 0.00 95 912.5
20260507091204 69 208 3.0 6.0 0.00 0.00 0.00 95 912.6
20260507090604 69 250 2.0 5.0 0.00 0.00 0.00 95 912.5
20260507090304 69 228 4.0 6.0 0.00 0.00 0.00 95 912.5
20260507090006 69 218 4.0 7.0 0.00 0.00 0.00 94 912.5
20260507085404 69 185 3.0 5.0 0.00 0.00 0.00 95 912.5
20260507085306 69 221 3.0 5.0 0.00 0.00 0.00 95 912.5
20260507084805 69 220 3.0 4.0 0.00 0.00 0.00 95 912.6
20260507084803 69 203 3.0 4.0 0.00 0.00 0.00 95 912.6
20260507084303 69 240 4.0 7.0 0.00 0.00 0.00 95 912.6
20260507084204 69 206 4.0 7.0 0.00 0.00 0.00 95 912.6
20260507083803 69 219 4.0 7.0 0.00 0.00 0.00 94 912.6
20260507083604 69 226 2.0 7.0 0.00 0.00 0.00 94 912.5
20260507083303 69 200 3.0 6.0 0.00 0.00 0.00 94 912.5
20260507083004 69 220 1.0 5.0 0.00 0.00 0.00 94 912.6
20260507082803 69 186 0.0 5.0 0.00 0.00 0.00 94 912.6
20260507082404 69 227 1.0 5.0 0.00 0.00 0.00 94 912.5
20260507082306 69 200 0.0 4.0 0.00 0.00 0.00 95 912.6
20260507081804 69 224 4.0 7.0 0.00 0.00 0.00 94 912.5
20260507081303 69 209 4.0 7.0 0.00 0.00 0.00 94 912.6
20260507081204 69 208 5.0 7.0 0.00 0.00 0.00 94 912.6
20260507080804 69 184 1.0 6.0 0.00 0.00 0.00 94 912.6
20260507080604 69 198 4.0 10.0 0.00 0.00 0.00 94 912.7
20260507080302 69 245 5.0 10.0 0.00 0.00 0.00 94 912.7
20260507080004 69 194 3.0 8.0 0.00 0.00 0.00 94 912.8
20260507075802 69 235 4.0 8.0 0.00 0.00 0.00 93 912.8
20260507075404 69 259 2.0 7.0 0.00 0.00 0.00 94 912.8
20260507075306 68 213 0.0 6.0 0.00 0.00 0.00 95 912.9
20260507074802 69 225 0.0 7.0 0.00 0.00 0.00 93 912.9
20260507074302 70 206 6.0 9.0 0.00 0.00 0.00 93 912.9
20260507074204 70 177 5.0 9.0 0.00 0.00 0.00 93 912.9
20260507073802 70 207 3.0 6.0 0.00 0.00 0.00 93 913.0
20260507073603 70 221 1.0 6.0 0.00 0.00 0.00 94 913.1
20260507073302 69 209 0.0 4.0 0.00 0.00 0.00 93 913.0
20260507073004 70 205 6.0 9.0 0.00 0.00 0.00 93 913.0
20260507072803 70 189 7.0 11.0 0.00 0.00 0.00 93 913.0
20260507072403 69 219 0.0 6.0 0.00 0.00 0.00 94 913.0
20260507072306 69 201 7.0 12.0 0.00 0.00 0.00 93 913.0
20260507071804 70 219 7.0 12.0 0.00 0.00 0.00 94 913.0
20260507071302 69 177 2.0 11.0 0.00 0.00 0.00 93 913.0
20260507071203 69 207 0.0 0.0 0.00 0.00 0.00 93 913.2
20260507070805 70 207 6.0 12.0 0.00 0.00 0.00 93 913.2
20260507070603 70 217 5.0 9.0 0.00 0.00 0.00 94 913.2
20260507070303 69 238 0.0 5.0 0.00 0.00 0.00 94 913.3
20260507070007 69 226 5.0 12.0 0.00 0.00 0.00 93 913.3
20260507065808 69 190 7.0 12.0 0.00 0.00 0.00 93 913.2
20260507065403 69 206 7.0 12.0 0.00 0.00 0.00 93 913.4
20260507065305 70 219 6.0 12.0 0.00 0.00 0.00 93 913.4
20260507064805 70 200 0.0 6.0 0.00 0.00 0.00 92 913.4
20260507064302 71 204 7.0 10.0 0.00 0.00 0.00 91 913.4
20260507064203 71 214 6.0 9.0 0.00 0.00 0.00 91 913.4
20260507063802 71 207 6.0 11.0 0.00 0.00 0.00 91 913.5
20260507063603 71 247 6.0 9.0 0.00 0.00 0.00 91 913.5
20260507063003 70 166 5.0 9.0 0.00 0.00 0.00 92 913.6
20260507062802 70 238 4.0 10.0 0.00 0.00 0.00 92 913.6
20260507062403 71 213 6.0 10.0 0.00 0.00 0.00 91 913.7
20260507062305 71 221 6.0 10.0 0.00 0.00 0.00 91 913.7
20260507061803 70 245 3.0 9.0 0.00 0.00 0.00 92 913.8
20260507061302 71 209 1.0 9.0 0.00 0.00 0.00 90 913.7
20260507060801 71 192 6.0 10.0 0.00 0.00 0.00 90 913.8
20260507060603 71 210 6.0 10.0 0.00 0.00 0.00 90 913.8
20260507060302 71 205 5.0 8.0 0.00 0.00 0.00 90 913.8
20260507060003 71 198 0.0 5.0 0.00 0.00 0.00 88 913.9
20260507055802 72 225 1.0 6.0 0.00 0.00 0.00 88 913.9
20260507055403 71 162 4.0 9.0 0.00 0.00 0.00 90 913.9
20260507055305 71 210 6.0 9.0 0.00 0.00 0.00 90 913.9
20260507054803 71 175 4.0 6.0 0.00 0.00 0.00 92 913.9
20260507054301 70 194 4.0 7.0 0.00 0.00 0.00 92 914.1
20260507054203 70 204 2.0 6.0 0.00 0.00 0.00 92 914.1
20260507053801 71 220 5.0 9.0 0.00 0.00 0.00 91 914.1
20260507053603 71 242 5.0 8.0 0.00 0.00 0.00 91 914.1
20260507053301 71 167 3.0 5.0 0.00 0.00 0.00 91 914.1
20260507053003 71 191 1.0 5.0 0.00 0.00 0.00 90 914.2
20260507052803 72 165 6.0 10.0 0.00 0.00 0.00 89 914.2
20260507052403 73 186 2.0 10.0 0.00 0.00 0.00 89 914.2
20260507052301 73 251 4.0 10.0 0.00 0.00 0.00 88 914.2
20260507051801 72 207 4.0 10.0 0.00 0.00 0.00 90 914.2
20260507051301 72 213 4.0 12.0 0.00 0.00 0.00 89 914.3
20260507051203 72 206 0.0 9.0 0.00 0.00 0.00 89 914.3
20260507050603 73 140 5.0 14.0 0.00 0.00 0.00 89 914.2
20260507050301 73 193 10.0 14.0 0.00 0.00 0.00 88 914.2
20260507050002 72 199 5.0 12.0 0.00 0.00 0.00 89 914.2
20260507045801 73 217 5.0 12.0 0.00 0.00 0.00 89 914.2
20260507045403 73 238 0.0 1.0 0.00 0.00 0.00 89 914.3
20260507045301 73 173 1.0 3.0 0.00 0.00 0.00 89 914.4
20260507044803 73 211 5.0 9.0 0.00 0.00 0.00 90 914.4
20260507044801 73 212 5.0 9.0 0.00 0.00 0.00 90 914.4
20260507044301 73 180 5.0 9.0 0.00 0.00 0.00 89 914.3
20260507044202 73 214 5.0 9.0 0.00 0.00 0.00 89 914.3
20260507043801 72 198 7.0 11.0 0.00 0.00 0.00 90 914.4
20260507043602 72 197 5.0 11.0 0.00 0.00 0.00 89 914.4
20260507043002 72 242 5.0 13.0 0.00 0.00 0.00 89 914.5
20260507042402 73 196 6.0 10.0 0.00 0.00 0.00 89 914.5
20260507041802 72 225 5.0 12.0 0.00 0.00 0.00 90 914.5
20260507041301 71 172 7.0 11.0 0.00 0.00 0.00 89 914.6
20260507041202 72 211 7.0 11.0 0.00 0.00 0.00 88 914.6
20260507040002 72 65 4.0 9.0 0.00 0.00 0.00 90 914.7
20260507035402 72 205 0.0 9.0 0.00 0.00 0.00 90 914.8
20260507035300 72 106 0.0 8.0 0.00 0.00 0.00 90 914.7
20260507034802 72 189 0.0 8.0 0.00 0.00 0.00 91 914.8
20260507034800 72 178 0.0 8.0 0.00 0.00 0.00 91 914.8
20260507034300 71 198 0.0 4.0 0.00 0.00 0.00 91 914.9
20260507034202 71 209 0.0 0.0 0.00 0.00 0.00 92 914.9
20260507033800 72 202 5.0 10.0 0.00 0.00 0.00 93 914.9
20260507033603 71 212 0.0 0.0 0.00 0.00 0.00 93 914.9
20260507033300 71 152 4.0 8.0 0.00 0.00 0.00 93 915.0
20260507033002 70 205 5.0 11.0 0.00 0.00 0.00 92 915.1
20260507032800 71 242 4.0 11.0 0.00 0.00 0.00 92 915.1
20260507032401 71 196 7.0 11.0 0.00 0.00 0.00 94 915.1
20260507032300 71 114 4.0 10.0 0.00 0.00 0.00 94 915.1
20260507031802 71 202 4.0 9.0 0.00 0.00 0.00 95 915.1
20260507031800 71 235 4.0 9.0 0.00 0.00 0.00 95 915.1
20260507031300 72 188 5.0 9.0 0.00 0.00 0.00 97 915.1
20260507031202 72 275 5.0 9.0 0.00 0.00 0.00 98 915.1
20260507030800 71 178 5.0 9.0 0.00 0.00 0.00 98 915.2
20260507030601 71 166 4.0 11.0 0.00 0.00 0.00 98 915.1
20260507030300 70 162 6.0 11.0 0.00 0.00 0.00 98 915.2
20260507030001 70 200 6.0 9.0 0.00 0.00 0.00 98 915.2
20260507025800 70 164 6.0 9.0 0.00 0.00 0.00 98 915.2
20260507025401 70 156 0.0 6.0 0.00 0.00 0.00 99 915.2
20260507025300 70 182 2.0 9.0 0.00 0.00 0.00 99 915.2
20260507024802 69 159 6.0 10.0 0.00 0.00 0.00 98 915.1
20260507024800 69 153 6.0 10.0 0.00 0.00 0.00 98 915.1
20260507024300 70 137 1.0 8.0 0.00 0.00 0.00 98 915.1
20260507024201 69 125 1.0 7.0 0.00 0.00 0.00 98 915.1
20260507023800 69 206 5.0 9.0 0.00 0.00 0.00 98 915.2
20260507023601 69 135 5.0 9.0 0.00 0.00 0.00 99 915.1
20260507023300 68 163 4.0 9.0 0.00 0.00 0.00 98 915.2
20260507023001 69 107 3.0 8.0 0.00 0.00 0.00 98 915.2
20260507022800 69 129 4.0 8.0 0.00 0.00 0.00 98 915.2
20260507022401 69 103 2.0 8.0 0.00 0.00 0.00 98 915.2
20260507022301 68 183 0.0 8.0 0.00 0.00 0.00 98 915.3
20260507021801 69 169 6.0 11.0 0.00 0.00 0.00 98 915.3
20260507021201 68 139 5.0 9.0 0.00 0.00 0.00 98 915.2
20260507020601 68 163 5.0 8.0 0.00 0.00 0.00 98 915.2
20260507020300 68 147 5.0 8.0 0.00 0.00 0.00 98 915.2
20260507020001 68 109 6.0 9.0 0.00 0.00 0.00 98 915.2
20260507015401 69 197 5.0 8.0 0.00 0.00 0.00 99 915.1
20260507014801 68 170 1.0 8.0 0.00 0.00 0.00 99 915.1
20260507014259 67 187 4.0 8.0 0.00 0.00 0.00 98 915.1
20260507014201 67 216 5.0 8.0 0.00 0.00 0.00 98 915.1
20260507013800 68 144 2.0 9.0 0.00 0.00 0.00 99 915.2
20260507013601 68 186 3.0 9.0 0.00 0.00 0.00 98 915.2
20260507013259 68 122 6.0 9.0 0.00 0.00 0.00 99 915.2
20260507013003 68 170 0.0 0.0 0.00 0.00 0.00 99 915.2
20260507012401 68 128 5.0 8.0 0.00 0.00 0.00 98 915.1
20260507012259 68 168 6.0 8.0 0.00 0.00 0.00 99 915.2
20260507011759 67 152 4.0 8.0 0.00 0.00 0.00 98 915.1
20260507011259 67 120 1.0 7.0 0.00 0.00 0.00 99 915.1
20260507011201 67 171 0.0 0.0 0.00 0.00 0.00 99 915.1
20260507010759 67 196 0.0 6.0 0.00 0.00 0.00 99 915.1
20260507010601 68 127 1.0 7.0 0.00 0.00 0.00 99 915.0
20260507010300 68 179 4.0 7.0 0.00 0.00 0.00 98 915.0
20260507010000 68 152 1.0 4.0 0.00 0.00 0.00 99 915.0
20260507005759 68 139 1.0 4.0 0.00 0.00 0.00 99 915.0
20260507005400 66 145 0.0 3.0 0.00 0.00 0.00 99 915.1
20260507004301 66 97 0.0 4.0 0.00 0.00 0.00 98 915.1
20260507004200 66 111 1.0 4.0 0.00 0.00 0.00 98 915.0
20260507003759 66 127 1.0 3.0 0.00 0.00 0.00 98 915.0
20260507003259 65 82 0.0 3.0 0.00 0.00 0.00 98 915.0
20260507003000 65 84 1.0 4.0 0.00 0.00 0.00 98 915.0
20260507002400 65 92 1.0 6.0 0.00 0.00 0.00 98 914.9
20260507002259 65 87 4.0 7.0 0.00 0.00 0.00 98 914.9
20260507001800 65 92 1.0 6.0 0.00 0.00 0.00 98 915.0
20260507001759 65 96 1.0 6.0 0.00 0.00 0.00 98 914.9
20260507001259 65 102 1.0 3.0 0.00 0.00 0.00 98 915.0
20260507001200 65 117 3.0 5.0 0.00 0.00 0.00 98 914.9
20260507000759 65 113 1.0 6.0 0.00 0.00 0.00 98 914.9
20260507000600 65 95 2.0 6.0 0.00 0.00 0.00 98 914.9